TimeCDT,TemperatureF,Dew PointF,Humidity,Sea Level PressureIn,VisibilityMPH,Wind Direction,Wind SpeedMPH,Gust SpeedMPH,PrecipitationIn,Events,Conditions,WindDirDegrees,DateUTC
12:15 AM,50.0,37.4,62,30.02,10.0,SSE,3.5,-,N/A,,Clear,160,2013-04-28 05:15:00
12:35 AM,48.2,37.4,66,30.02,10.0,SSE,3.5,-,N/A,,Clear,160,2013-04-28 05:35:00
12:55 AM,48.2,37.4,66,30.02,10.0,Calm,Calm,-,N/A,,Clear,0,2013-04-28 05:55:00
1:15 AM,48.2,37.4,66,30.01,10.0,Calm,Calm,-,N/A,,Clear,0,2013-04-28 06:15:00
1:35 AM,46.4,37.4,71,30.00,10.0,Calm,Calm,-,N/A,,Clear,0,2013-04-28 06:35:00
1:55 AM,46.4,37.4,71,30.00,10.0,Calm,Calm,-,N/A,,Clear,0,2013-04-28 06:55:00
2:15 AM,46.4,37.4,71,29.99,10.0,Calm,Calm,-,N/A,,Clear,0,2013-04-28 07:15:00
2:35 AM,46.4,37.4,71,29.98,10.0,Calm,Calm,-,N/A,,Clear,0,2013-04-28 07:35:00
2:55 AM,46.4,37.4,71,29.98,10.0,Calm,Calm,-,N/A,,Clear,0,2013-04-28 07:55:00
3:15 AM,46.4,37.4,71,29.98,10.0,Calm,Calm,-,N/A,,Clear,0,2013-04-28 08:15:00
3:35 AM,46.4,37.4,71,29.97,10.0,Calm,Calm,-,N/A,,Clear,0,2013-04-28 08:35:00
3:55 AM,46.4,37.4,71,29.96,10.0,Calm,Calm,-,N/A,,Clear,0,2013-04-28 08:55:00
4:15 AM,46.4,37.4,71,29.96,10.0,Calm,Calm,-,N/A,,Clear,0,2013-04-28 09:15:00
4:35 AM,44.6,37.4,76,29.96,10.0,Calm,Calm,-,N/A,,Clear,0,2013-04-28 09:35:00
4:55 AM,44.6,37.4,76,29.96,10.0,Calm,Calm,-,N/A,,Clear,0,2013-04-28 09:55:00
5:15 AM,44.6,37.4,76,29.96,10.0,Calm,Calm,-,N/A,,Clear,0,2013-04-28 10:15:00
5:20 AM,44.6,37.4,76,29.96,10.0,Variable,3.5,-,N/A,,Scattered Clouds,0,2013-04-28 10:20:00
5:45 AM,46.4,39.2,76,29.96,10.0,Calm,Calm,-,N/A,,Mostly Cloudy,0,2013-04-28 10:45:00
6:45 AM,46.4,39.2,76,29.95,10.0,Calm,Calm,-,N/A,,Mostly Cloudy,0,2013-04-28 11:45:00
8:45 AM,55.4,39.2,54,29.96,10.0,Calm,Calm,-,N/A,,Mostly Cloudy,0,2013-04-28 13:45:00
9:45 AM,60.8,37.4,42,29.94,10.0,Variable,3.5,-,N/A,,Mostly Cloudy,0,2013-04-28 14:45:00
10:45 AM,64.4,37.4,37,29.92,10.0,Variable,3.5,-,N/A,,Mostly Cloudy,0,2013-04-28 15:45:00
11:45 AM,66.2,35.6,32,29.91,10.0,Variable,3.5,-,N/A,,Mostly Cloudy,0,2013-04-28 16:45:00
1:45 PM,68.0,35.6,30,29.86,10.0,SW,10.4,-,N/A,,Scattered Clouds,220,2013-04-28 18:45:00
2:45 PM,69.8,37.4,31,29.85,10.0,South,5.8,-,N/A,,Scattered Clouds,180,2013-04-28 19:45:00
3:45 PM,69.8,37.4,31,29.83,10.0,South,6.9,-,N/A,,Scattered Clouds,180,2013-04-28 20:45:00
4:45 PM,69.8,37.4,31,29.81,10.0,SSE,9.2,-,N/A,,Scattered Clouds,150,2013-04-28 21:45:00
5:45 PM,69.8,37.4,31,29.81,10.0,SE,5.8,-,N/A,,Scattered Clouds,140,2013-04-28 22:45:00
6:45 PM,66.2,39.2,37,29.80,10.0,SSE,5.8,-,N/A,,Scattered Clouds,160,2013-04-28 23:45:00
7:45 PM,60.8,44.6,55,29.79,10.0,SE,9.2,-,N/A,,Scattered Clouds,140,2013-04-29 00:45:00
8:45 PM,59.0,44.6,59,29.80,10.0,SE,10.4,-,N/A,,Scattered Clouds,140,2013-04-29 01:45:00
9:45 PM,57.2,44.6,63,29.81,10.0,SSE,10.4,-,N/A,,Scattered Clouds,150,2013-04-29 02:45:00
10:45 PM,53.6,44.6,72,29.82,10.0,SSE,8.1,-,N/A,,Scattered Clouds,160,2013-04-29 03:45:00
10:55 PM,53.6,44.6,72,29.82,10.0,SSE,9.2,-,N/A,,Clear,160,2013-04-29 03:55:00
11:15 PM,51.8,44.6,76,29.82,10.0,SSE,8.1,-,N/A,,Clear,160,2013-04-29 04:15:00
11:35 PM,51.8,44.6,76,29.82,10.0,SSE,9.2,-,N/A,,Clear,150,2013-04-29 04:35:00
11:55 PM,51.8,44.6,76,29.81,10.0,SSE,8.1,-,N/A,,Clear,150,2013-04-29 04:55:00